ALOS (DAICHI)

Last updated on Wed Sep 17 2025 00:02:15 GMT+0000 (Coordinated Universal Time)

1 28931U 06002A 25259.59284530 .00001439 00000+0 25365-3 0 9990 2 28931 98.0932 211.7970 0002285 97.2809 262.8656 14.69019773 47918
UTC large
Height (km)
Speed (km/s)
/
Latitude / Longitude
Inclination (degrees)
Orbital Period (minutes)
Azimuth
Elevation
Range (km)
Doppler Factor

Next 0 passes for location: London (51.5072 / 0.1276)

Sorry there are no passes over London.